Regional Weather Roundup
Issued by NWS Goodland, KS

Home | Current Version | Previous Version | Graphics & Text | Print | Product List | Glossary On
Versions: 1 2 3 4 5 6 7 8 9 10 11 12 13 14 15 16 17 18 19 20 21 22 23 24 25 26 27 28 29 30 31 32 33 34 35 36 37 38 39 40 41 42 43 44 45 46 47 48 49 50
000
ASUS43 KGLD 232308
RWRGLD

GOODLAND FORECAST AREA HOURLY WEATHER ROUNDUP
NATIONAL WEATHER SERVICE GOODLAND KS
500 PM MDT THU OCT 23 2014

...OFFICIAL OBSERVATIONS...

CITY           SKY/WX    TMP DP  RH WIND       PRES   REMARKS
GOODLAND KS    PTCLDY    70  53  54 S13       30.05F
HILL CITY KS   MOCLDY    71  56  58 S8        30.03S
IMPERIAL NEB   PTCLDY    74  36  25 W6        30.01R
MCCOOK NEB     MOCLDY    71  48  43 S9        30.01S
AKRON CO       MOSUNNY   70  32  24 SW5       30.07S
BURLINGTON CO  PTCLDY    68  39  34 SW8       30.08F
LIMON CO       MOSUNNY   67  32  27 S8        30.13R
$$

...UNOFFICIAL OBSERVATIONS...

CITY           SKY/WX    TMP DP  RH WIND       PRES   REMARKS
COLBY KS       CLEAR     66  59  77 S8        30.06S
GOVE KS          N/A     70  32  24 MISG        N/A
NORTON KS      CLEAR     68  48  49 S5        30.02R
SHARON SPRINGS   N/A     66  56  70 S6          N/A
TRIBUNE KS     PTCLDY    64  59  82 SE8       30.09F
KIT CARSON CO    N/A     72  44  35 CALM        N/A
YUMA CO          N/A     71  32  24 CALM        N/A
$$



USA.gov is the U.S. government's official web portal to all federal, state and local government web resources and services.